Regional Weather Roundup
Issued by NWS

Home | Current Version | Previous Version | Graphics & Text | Print | Product List | Glossary Off
Versions: 1 2 3 4 5 6 7 8 9 10 11 12 13 14 15 16 17 18 19 20 21 22 23 24 25 26 27 28 29 30 31 32 33 34 35 36 37 38 39 40 41 42 43 44 45 46 47 48 49 50

000
ASUS43 KMKX 041200
RWRWI

WISCONSIN REGIONAL WEATHER ROUNDUP
NATIONAL WEATHER SERVICE MILWAUKEE/SULLIVAN WI
600 AM CST SUN DEC 04 2016

NOTE: "FAIR" INDICATES FEW OR NO CLOUDS BELOW 12,000 FEET WITH NO
SIGNIFICANT WEATHER AND/OR OBSTRUCTIONS TO VISIBILITY.

WIZ001-002-006>008-014>016-023>028-041300-
NORTHWEST WISCONSIN

CITY           SKY/WX    TMP DP  RH WIND       PRES   REMARKS
SUPERIOR ARPT  LGT SNOW  28  28  96 CALM      30.02F
ASHLAND        CLOUDY    30  23  75 S8        30.05F WCI  22
6HR MIN TEMP:  29; 6HR MAX TEMP:  30;

HAYWARD        LGT SNOW  28  24  85 VRB6      30.02F FOG     WCI  22
6HR MIN TEMP:  28; 6HR MAX TEMP:  29; 6HR PCP: TRACE;

SIREN          LGT SNOW  29  28  94 SE6       30.00F WCI  23
CUMBERLAND     LGT SNOW  28  27  93 SE7       30.01F WCI  21
RICE LAKE      LGT SNOW  29  27  93 SE10      30.04F WCI  20
CHETEK         LGT SNOW  28  28  96 SE8       30.03F WCI  20
LADYSMITH      LGT SNOW  29  27  92 SE6       30.06F WCI  23
EAU CLAIRE     LGT SNOW  30  28  92 E7        30.03F FOG     WCI  23
6HR MIN TEMP:  30; 6HR MAX TEMP:  31; 6HR PCP:  0.02;

MENOMONIE      LGT SNOW  31  30  97 E7        30.03F WCI  24
NEW RICHMOND   LGT SNOW  30  30  98 SE8       29.99F WCI  23
OSCEOLA        LGT SNOW  31  31 100 E9        30.01F WCI  23
$$

WIZ003>005-009-010-017-018-041300-
NORTH CENTRAL WISCONSIN

CITY           SKY/WX    TMP DP  RH WIND       PRES   REMARKS
MANITOWISH WTR CLOUDY    26  22  87 S7        30.05F WCI  18
ARBOR VITAE    CLOUDY    28  23  81 S8        30.06F WCI  20
WOODRUFF       CLOUDY    28  23  81 S8        30.06F WCI  20
RHINELANDER    CLOUDY    27  22  81 S5        30.07F WCI  22
6HR MIN TEMP:  27; 6HR MAX TEMP:  28;

EAGLE RIVER    CLOUDY    26  19  75 S3        30.06F
LAND O LAKES   CLOUDY    27  20  77 S5        30.08F WCI  21
PHILLIPS       CLOUDY    27  24  89 S8        30.05F WCI  18
TOMAHAWK       LGT SNOW  26  23  87 CALM      30.08F
MEDFORD        LGT SNOW  26  24  90 SE3       30.05F
MERRILL        FLURRIES  28  23  82 SE3       30.09F
$$

WIZ029-030-035-036-043>047-041300-
CENTRAL WISCONSIN

CITY           SKY/WX    TMP DP  RH WIND       PRES   REMARKS
WAUSAU         CLOUDY    28  22  78 SE8       30.08F WCI  20
6HR MIN TEMP:  27; 6HR MAX TEMP:  28;

MOSINEE        FLURRIES  28  25  86 SE7       30.11F WCI  21
MARSHFIELD     LGT SNOW  28  25  88 SE7       30.07F FOG     WCI  21
6HR MIN TEMP:  28; 6HR MAX TEMP:  28; 6HR PCP: TRACE;

STEVENS POINT  LGT SNOW  27  24  88 SE5       30.12F WCI  21
WAUPACA        CLOUDY    32  27  81 CALM      30.14F
WAUTOMA        LGT SNOW  30  27  88 SE6       30.14F FOG     WCI  24
6HR MIN TEMP:  28; 6HR MAX TEMP:  30;

WISC RAPIDS    LGT SNOW  29  27  92 SE5       30.12F FOG     WCI  24
6HR MIN TEMP:  28; 6HR MAX TEMP:  30; 6HR PCP: TRACE;

CAMP DOUGLAS   NOT AVBL
$$

WIZ011>013-019>022-031-037>040-048>050-041300-
NORTHEAST WISCONSIN

CITY           SKY/WX    TMP DP  RH WIND       PRES   REMARKS
ANTIGO         CLOUDY    26  22  85 SE6       30.09F WCI  19
SHAWANO        CLOUDY    31  25  79 CALM      30.15F
OCONTO         CLOUDY    30  23  74 CALM      30.16F
STURGEON BAY   CLOUDY    30  25  81 S6        30.16F WCI  24
6HR MIN TEMP:  30; 6HR MAX TEMP:  31;

GREEN BAY      CLOUDY    32  26  78 S7        30.16F WCI  26
6HR MIN TEMP:  32; 6HR MAX TEMP:  33;

MANITOWOC      NOT AVBL
APPLETON       CLOUDY    30  25  80 S5        30.13F WCI  25
CLINTONVILLE   CLOUDY    30  23  74 SE3       30.14F
OSHKOSH        CLOUDY    30  25  81 S7        30.15F WCI  23
6HR MIN TEMP:  28; 6HR MAX TEMP:  30;

$$

WIZ032>034-041-042-053>061-041300-
SOUTHWEST WISCONSIN

CITY           SKY/WX    TMP DP  RH WIND       PRES   REMARKS
LA CROSSE      LGT SNOW  34  31  88 SE9       30.06F FOG     WCI  27
6HR MIN TEMP:  33; 6HR MAX TEMP:  34; 6HR PCP:  0.08;

SPARTA         LGT SNOW  31  30  97 E5        30.09F WCI  26
VIROQUA        CLOUDY    30  30 100 SE9       30.06F WCI  22
BOSCOBEL       LGT SNOW  33  30  88 CALM      30.11F VSB 1
6HR MIN TEMP:  33; 6HR MAX TEMP:  35; 6HR PCP:  0.05;

PRAIRIE DU CHI LGT SNOW  32  31  95 SE6       30.09F WCI  27
PLATTEVILLE    CLOUDY    31  31 100 SE12      30.11F VSB 1   WCI  22
$$

WIZ056-057-062-063-064-067-068-041300-
SOUTH CENTRAL WISCONSIN

CITY           SKY/WX    TMP DP  RH WIND       PRES   REMARKS
REEDSBURG      MIX PCPN  30  30 100 CALM      30.11F
BARABOO/DELLS  SNOW      30  29  96 SE3       30.12F VSB 1/2
LONE ROCK      NOT AVBL
MINERAL POINT  LGT SNOW  32  32 100 SE10      30.09F WCI  24
MADISON        LGT SNOW  31  29  92 SE7       30.14F FOG     WCI  24
6HR MIN TEMP:  31; 6HR MAX TEMP:  32; 6HR PCP:  0.02;

MIDDLETON      CLOUDY    32  32  99 S7        30.14F WCI  26
WATERTOWN      FLURRIES  30  29  98 SE3       30.16S
MONROE         LGT SNOW  32  30  93 SE9       30.13F WCI  24
JANESVILLE     CLOUDY    32  28  86 S3        30.16F
$$

WIZ051-052-058>065-066-070>072-041300-
SOUTHEAST WISCONSIN

CITY           SKY/WX    TMP DP  RH WIND       PRES   REMARKS
MILWAUKEE      CLOUDY    32  25  75 SW3       30.18R
6HR MIN TEMP:  28; 6HR MAX TEMP:  33;

WAUKESHA       CLOUDY    28  25  86 CALM      30.18S
MILWAUKEE/TIMM CLOUDY    32  23  69 CALM      30.18F
RACINE         CLOUDY    31  25  78 CALM      30.19S
6HR MIN TEMP:  25; 6HR MAX TEMP:  31;

BURLINGTON     CLOUDY    31  27  87 CALM      30.17S
KENOSHA        CLOUDY    32  27  81 CALM      30.17F
6HR MIN TEMP:  29; 6HR MAX TEMP:  32;

FOND DU LAC    FLURRIES  31  24  75 S9        30.15F WCI  23
6HR MIN TEMP:  30; 6HR MAX TEMP:  31; 6HR PCP: TRACE;

SHEBOYGAN      CLOUDY    30  25  81 CALM      30.17F
6HR MIN TEMP:  28; 6HR MAX TEMP:  30;

WEST BEND      CLOUDY    30  27  86 CALM      30.17S
JUNEAU         FLURRIES  29  27  92 SE5       30.17R WCI  24
$$

LSZ147-162-041300-
LAKE SUPERIOR

STATION/POSITION TIME  TEMP    WIND        PRES    WAVE
                       AIR SEA DIR/SP/G            HT/PER
                 (UTC) (F)     (DEG/KT/KT) (MB)    (FT/S)
DEVILS ISLAND    1100   31     170/  7/ 10 1019.4F
PORT WING        1140   30     150/  3/  8 1016.9F
SAXON HARBOR     1130   30     160/  4/ 10 1017.9F
$$

LMZ867-665-643>646-041300-
LAKE MICHIGAN

STATION/POSITION TIME  TEMP    WIND        PRES    WAVE
                       AIR SEA DIR/SP/G            HT/PER
                 (UTC) (F)     (DEG/KT/KT) (MB)    (FT/S)
CHAMBERS ISLAND  1140   33     190/  6/ 11 1021.0F
NORTHPORT PIER   1140   33      CALM  /  2 1021.3F
SISTER BAY       1053   33     180/  7/  9   N/A
ALGOMA LAKESHORE 1051          240/  6/  7   N/A
KEWAUNEE LAKESHO 1130   31     230/  4/  6 1021.4F
SHEBOYGAN LAKESH 1100   32     250/  4/  5 1022.6F
PORT WASHINGTON  1130   32     240/  3/  5 1023.0S
MILWAUKEE LAKESH 1130   33     230/  6/  6   N/A
S MID LAKE BUOY  1050   36 48  210/  4/  6 1022.7F   0
KENOSHA   LAKESH 1100   33     250/  1/  2 1022.0
$$

TC  - TEMPERATURE IN CELSIUS
VSB - VISIBILITY IN STATUTE MILES
WCI - WIND CHILL INDEX
HX  - HEAT INDEX





USA.gov is the U.S. government's official web portal to all federal, state and local government web resources and services.